This is the latest recevied weather packets stored in our database for station/object WD8INF-9. If no packets are shown the sender has not sent any weather packets the latest 10 day(s).
| Time | Temp. | Humidity | Pressure | Rain* | Wind** | Luminosity | Snow |
|---|---|---|---|---|---|---|---|
| 1777668694 | 13.89° C | - | 1013.9 hPa | 0 mm | - | - | - |
| 1777668393 | 12.22° C | - | 1013.7 hPa | 0 mm | - | - | - |
| 1777668092 | 13.33° C | - | 1013.6 hPa | 0 mm | - | - | - |
| 1777667792 | 16.67° C | - | 1013.5 hPa | 0 mm | - | - | - |
| 1777667492 | 16.11° C | - | 1013.7 hPa | 0 mm | - | - | - |
| 1777667192 | 12.78° C | - | 1013.6 hPa | 0 mm | - | - | - |
| 1777666891 | 12.78° C | - | 1013.4 hPa | 0 mm | - | - | - |
| 1777666591 | 13.33° C | - | 1013.6 hPa | 0 mm | - | - | - |
| 1777666291 | 12.78° C | - | 1013.6 hPa | 0 mm | - | - | - |
| 1777665991 | 13.89° C | - | 1013.4 hPa | 0 mm | - | - | - |
| 1777665691 | 12.78° C | - | 1013.5 hPa | 0 mm | - | - | - |
| 1777665389 | 15° C | - | 1013.7 hPa | 0 mm | - | - | - |
| 1777665089 | 15° C | - | 1013.6 hPa | 0 mm | - | - | - |
| 1777664789 | 14.44° C | - | 1013.7 hPa | 0 mm | - | - | - |
| 1777664489 | 13.89° C | - | 1013.5 hPa | 0 mm | - | - | - |
| 1777664188 | 17.22° C | - | 1013.7 hPa | 0 mm | - | - | - |
| 1777663891 | 13.33° C | - | - | - | - | - | - |
| 1777663888 | 13.33° C | - | 1013.3 hPa | 0 mm | - | - | - |
| 1777663588 | 13.33° C | - | 1013.5 hPa | 0 mm | - | - | - |
| 1777663288 | 12.22° C | - | 1013.5 hPa | 0 mm | - | - | - |
| 1777662988 | 12.78° C | - | 1013.6 hPa | 0 mm | - | - | - |
| 1777662687 | 14.44° C | - | 1013.4 hPa | 0 mm | - | - | - |
| 1777662387 | 11.67° C | - | 1013.6 hPa | 0 mm | - | - | - |
| 1777662087 | 15.56° C | - | 1013.3 hPa | 0 mm | - | - | - |
| 1777661787 | 12.22° C | - | 1013.3 hPa | 0 mm | - | - | - |
* Rain since midnight (hover to see other rain measurements)
** Current wind speed in m/s (hover to see current wind gust speed)